VOI1782 MMMX-MMAA

Flight info

Callsign VOI1782
Flight time 0h 37m
Altitude 26000
Route TEVOS2A TEVOS UT116 ANALU ANALU1B
Aircraft A20N/M-SDE2E3FGHIRWXY/LB1

Departure

Time 2026-05-09 01:52
Airport Mexico City Benito Juárez International Airport (MMMX)

Arrival

Time 2026-05-09 02:29
Airport General Juan N. Álvarez International Airport (MMAA)
Time Latitude Longitude Altitude Speed Heading
2026-05-09 01:35 19.43320 -99.08473 7304 ft 0 kts 328°
2026-05-09 01:41 19.43316 -99.08470 7304 ft 2 kts 327°
2026-05-09 01:41 19.43302 -99.08461 7305 ft 2 kts 327°
2026-05-09 01:42 19.43288 -99.08452 7304 ft 2 kts 327°
2026-05-09 01:42 19.43274 -99.08443 7305 ft 2 kts 336°
2026-05-09 01:42 19.43259 -99.08435 7304 ft 2 kts 322°
2026-05-09 01:42 19.43251 -99.08421 7304 ft 2 kts 274°
2026-05-09 01:43 19.43253 -99.08404 7305 ft 2 kts 248°
2026-05-09 01:43 19.43255 -99.08399 7305 ft 0 kts 243°
2026-05-09 01:47 19.43254 -99.08401 7305 ft 1 kts 243°
2026-05-09 01:47 19.43247 -99.08415 7304 ft 3 kts 238°
2026-05-09 01:47 19.43230 -99.08443 7304 ft 6 kts 239°
2026-05-09 01:48 19.43204 -99.08490 7304 ft 9 kts 239°
2026-05-09 01:48 19.43167 -99.08556 7304 ft 12 kts 239°
2026-05-09 01:48 19.43120 -99.08641 7304 ft 15 kts 239°
2026-05-09 01:48 19.43064 -99.08741 7303 ft 17 kts 239°
2026-05-09 01:49 19.43003 -99.08849 7304 ft 17 kts 238°
2026-05-09 01:49 19.42947 -99.08948 7304 ft 15 kts 239°
2026-05-09 01:49 19.42889 -99.09025 7304 ft 12 kts 215°
2026-05-09 01:49 19.42822 -99.09069 7304 ft 11 kts 212°
2026-05-09 01:50 19.42770 -99.09085 7305 ft 5 kts 153°
2026-05-09 01:50 19.42763 -99.09050 7305 ft 7 kts 82°
2026-05-09 01:50 19.42777 -99.09013 7305 ft 0 kts 61°
2026-05-09 01:51 19.42796 -99.08979 7305 ft 25 kts 60°
2026-05-09 01:51 19.42988 -99.08638 7303 ft 82 kts 59°
2026-05-09 01:51 19.43380 -99.07944 7308 ft 137 kts 58°
2026-05-09 01:51 19.43942 -99.06941 7377 ft 170 kts 56°
2026-05-09 01:52 19.44545 -99.05844 7840 ft 174 kts 58°
2026-05-09 01:52 19.45149 -99.04694 8434 ft 186 kts 58°
2026-05-09 01:52 19.45854 -99.03433 8893 ft 211 kts 56°
2026-05-09 01:52 19.46664 -99.02041 9325 ft 233 kts 54°
2026-05-09 01:53 19.47548 -99.00511 9565 ft 252 kts 56°
2026-05-09 01:53 19.48467 -98.98892 9759 ft 267 kts 59°
2026-05-09 01:53 19.49369 -98.97125 10151 ft 278 kts 70°
2026-05-09 01:53 19.49701 -98.95109 10716 ft 281 kts 94°
2026-05-09 01:54 19.49466 -98.92993 11033 ft 298 kts 105°
2026-05-09 01:54 19.48621 -98.90937 11248 ft 314 kts 129°
2026-05-09 01:54 19.46926 -98.89451 11483 ft 325 kts 157°
2026-05-09 01:54 19.44704 -98.88946 11852 ft 333 kts 180°
2026-05-09 01:55 19.42366 -98.89026 12393 ft 340 kts 184°
2026-05-09 01:55 19.39995 -98.89177 13072 ft 342 kts 185°
2026-05-09 01:55 19.37618 -98.89310 13812 ft 343 kts 184°
2026-05-09 01:55 19.35212 -98.89421 14403 ft 348 kts 184°
2026-05-09 01:56 19.32778 -98.89518 14967 ft 352 kts 183°
2026-05-09 01:56 19.30322 -98.89606 15594 ft 355 kts 183°
2026-05-09 01:56 19.27843 -98.89690 16177 ft 359 kts 183°
2026-05-09 01:56 19.25326 -98.89772 16765 ft 364 kts 183°
2026-05-09 01:57 19.22785 -98.89853 17366 ft 367 kts 184°
2026-05-09 01:57 19.20209 -98.89936 17842 ft 373 kts 184°
2026-05-09 01:57 19.17595 -98.90019 18325 ft 377 kts 183°
2026-05-09 01:57 19.14999 -98.90100 18805 ft 378 kts 184°
2026-05-09 01:58 19.12327 -98.90184 19266 ft 381 kts 183°
2026-05-09 01:58 19.09697 -98.90267 19701 ft 385 kts 183°
2026-05-09 01:58 19.07021 -98.90350 20267 ft 385 kts 184°
2026-05-09 01:58 19.04329 -98.90435 20713 ft 389 kts 183°
2026-05-09 01:59 19.01607 -98.90521 21148 ft 393 kts 184°
2026-05-09 01:59 18.98875 -98.90606 21732 ft 393 kts 183°
2026-05-09 01:59 18.96125 -98.90692 22166 ft 398 kts 183°
2026-05-09 01:59 18.93350 -98.90779 22668 ft 400 kts 183°
2026-05-09 02:00 18.91462 -98.90838 23073 ft 401 kts 183°
2026-05-09 02:00 18.88657 -98.90926 23399 ft 406 kts 183°
2026-05-09 02:00 18.85811 -98.91016 23720 ft 411 kts 183°
2026-05-09 02:00 18.82949 -98.91105 24163 ft 413 kts 183°
2026-05-09 02:01 18.80103 -98.91194 24536 ft 417 kts 183°
2026-05-09 02:01 18.77193 -98.91285 24965 ft 419 kts 183°
2026-05-09 02:01 18.74272 -98.91377 25346 ft 422 kts 183°
2026-05-09 02:01 18.71325 -98.91469 25587 ft 425 kts 183°
2026-05-09 02:02 18.68371 -98.91561 25634 ft 424 kts 183°
2026-05-09 02:02 18.65416 -98.91653 25643 ft 425 kts 183°
2026-05-09 02:02 18.62449 -98.91745 25620 ft 425 kts 183°
2026-05-09 02:02 18.59493 -98.91838 25619 ft 425 kts 183°
2026-05-09 02:03 18.56530 -98.91930 25621 ft 426 kts 184°
2026-05-09 02:03 18.53570 -98.92022 25620 ft 425 kts 183°
2026-05-09 02:03 18.50610 -98.92115 25629 ft 426 kts 183°
2026-05-09 02:03 18.47681 -98.92206 25622 ft 426 kts 183°
2026-05-09 02:04 18.44720 -98.92296 25626 ft 426 kts 182°
2026-05-09 02:04 18.41777 -98.92562 25619 ft 424 kts 195°
2026-05-09 02:04 18.39015 -98.93620 25630 ft 422 kts 205°
2026-05-09 02:04 18.36341 -98.94901 25623 ft 422 kts 205°
2026-05-09 02:05 18.33660 -98.96178 25633 ft 422 kts 205°
2026-05-09 02:05 18.30973 -98.97419 25639 ft 422 kts 204°
2026-05-09 02:05 18.28266 -98.98640 25634 ft 423 kts 204°
2026-05-09 02:05 18.25561 -98.99843 25629 ft 422 kts 203°
2026-05-09 02:06 18.22847 -99.01039 25640 ft 423 kts 204°
2026-05-09 02:06 18.20127 -99.02232 25655 ft 423 kts 203°
2026-05-09 02:06 18.17408 -99.03421 25661 ft 424 kts 203°
2026-05-09 02:07 18.11993 -99.05784 25658 ft 424 kts 203°
2026-05-09 02:07 18.09292 -99.06960 25588 ft 414 kts 203°
2026-05-09 02:07 18.06670 -99.08102 25397 ft 403 kts 203°
2026-05-09 02:07 18.04116 -99.09213 25218 ft 392 kts 204°
2026-05-09 02:08 18.01635 -99.10293 25098 ft 380 kts 203°
2026-05-09 02:08 17.99221 -99.11343 24927 ft 370 kts 204°
2026-05-09 02:08 17.96865 -99.12368 24703 ft 362 kts 203°
2026-05-09 02:08 17.94539 -99.13380 24352 ft 359 kts 203°
2026-05-09 02:09 17.92253 -99.14374 24165 ft 352 kts 203°
2026-05-09 02:09 17.90012 -99.15348 23938 ft 345 kts 203°
2026-05-09 02:09 17.87815 -99.16302 23712 ft 338 kts 203°
2026-05-09 02:09 17.85663 -99.17237 23498 ft 332 kts 203°
2026-05-09 02:10 17.83549 -99.18155 23280 ft 326 kts 203°
2026-05-09 02:10 17.81466 -99.19060 23012 ft 320 kts 203°
2026-05-09 02:10 17.79430 -99.19943 22804 ft 314 kts 203°
2026-05-09 02:10 17.77347 -99.20848 22568 ft 338 kts 202°
2026-05-09 02:11 17.75109 -99.21819 22338 ft 366 kts 202°
2026-05-09 02:11 17.72685 -99.22871 22096 ft 380 kts 202°
2026-05-09 02:11 17.70274 -99.23916 21850 ft 370 kts 202°
2026-05-09 02:11 17.67920 -99.24935 21593 ft 361 kts 202°
2026-05-09 02:12 17.65635 -99.25925 21381 ft 348 kts 202°
2026-05-09 02:12 17.63437 -99.26877 21127 ft 336 kts 202°
2026-05-09 02:12 17.61292 -99.27806 20891 ft 331 kts 202°
2026-05-09 02:12 17.59167 -99.28726 20651 ft 330 kts 202°
2026-05-09 02:13 17.57047 -99.29644 20407 ft 329 kts 202°
2026-05-09 02:13 17.54931 -99.30560 20183 ft 328 kts 202°
2026-05-09 02:13 17.52828 -99.31469 19949 ft 326 kts 201°
2026-05-09 02:13 17.50733 -99.32375 19671 ft 325 kts 202°
2026-05-09 02:14 17.48627 -99.33230 19352 ft 325 kts 198°
2026-05-09 02:14 17.46484 -99.33959 19032 ft 322 kts 197°
2026-05-09 02:14 17.44349 -99.34652 18722 ft 321 kts 197°
2026-05-09 02:14 17.42218 -99.35341 18411 ft 320 kts 196°
2026-05-09 02:15 17.40130 -99.36016 18110 ft 317 kts 196°
2026-05-09 02:15 17.38033 -99.36695 17750 ft 315 kts 196°
2026-05-09 02:15 17.35941 -99.37374 17392 ft 314 kts 196°
2026-05-09 02:15 17.33861 -99.38048 17042 ft 310 kts 196°
2026-05-09 02:16 17.31819 -99.38711 16671 ft 306 kts 196°
2026-05-09 02:16 17.29788 -99.39371 16239 ft 307 kts 196°
2026-05-09 02:16 17.27751 -99.40031 15799 ft 305 kts 196°
2026-05-09 02:16 17.25728 -99.40688 15370 ft 304 kts 196°
2026-05-09 02:17 17.23708 -99.41343 14947 ft 304 kts 196°
2026-05-09 02:17 17.21679 -99.42001 14519 ft 304 kts 196°
2026-05-09 02:17 17.19689 -99.42647 13949 ft 304 kts 195°
2026-05-09 02:17 17.17657 -99.43305 13275 ft 307 kts 195°
2026-05-09 02:18 17.15628 -99.43963 12711 ft 305 kts 196°
2026-05-09 02:18 17.13604 -99.44619 12098 ft 304 kts 196°
2026-05-09 02:18 17.11591 -99.45271 11499 ft 302 kts 196°
2026-05-09 02:18 17.09592 -99.45918 10895 ft 300 kts 196°
2026-05-09 02:19 17.07597 -99.46564 10322 ft 299 kts 196°
2026-05-09 02:19 17.05635 -99.47200 9749 ft 289 kts 196°
2026-05-09 02:19 17.03763 -99.47807 9119 ft 275 kts 196°
2026-05-09 02:19 17.01975 -99.48386 8499 ft 265 kts 196°
2026-05-09 02:20 17.00227 -99.48952 7899 ft 262 kts 196°
2026-05-09 02:20 16.98492 -99.49513 7480 ft 259 kts 196°
2026-05-09 02:20 16.96769 -99.50070 7140 ft 259 kts 196°
2026-05-09 02:20 16.95055 -99.50624 6609 ft 257 kts 196°
2026-05-09 02:21 16.93346 -99.51175 5862 ft 255 kts 196°
2026-05-09 02:21 16.91656 -99.51721 5098 ft 253 kts 197°
2026-05-09 02:21 16.89984 -99.52261 4434 ft 249 kts 197°
2026-05-09 02:21 16.88367 -99.52784 4074 ft 247 kts 197°
2026-05-09 02:22 16.86719 -99.53316 3999 ft 248 kts 197°
2026-05-09 02:22 16.85122 -99.53832 4011 ft 225 kts 197°
2026-05-09 02:22 16.83700 -99.54291 3791 ft 207 kts 197°
2026-05-09 02:22 16.82339 -99.54730 3306 ft 204 kts 198°
2026-05-09 02:23 16.80990 -99.55166 2800 ft 202 kts 198°
2026-05-09 02:23 16.79647 -99.55600 2552 ft 201 kts 198°
2026-05-09 02:23 16.78325 -99.56034 2485 ft 194 kts 199°
2026-05-09 02:23 16.77050 -99.56461 2494 ft 192 kts 200°
2026-05-09 02:24 16.75792 -99.56886 2496 ft 187 kts 199°
2026-05-09 02:24 16.74592 -99.57290 2484 ft 175 kts 199°
2026-05-09 02:24 16.73474 -99.57711 2487 ft 168 kts 207°
2026-05-09 02:24 16.72496 -99.58359 2489 ft 167 kts 222°
2026-05-09 02:25 16.71731 -99.59260 2408 ft 164 kts 238°
2026-05-09 02:25 16.71380 -99.60334 2380 ft 154 kts 265°
2026-05-09 02:25 16.71432 -99.61447 2262 ft 153 kts 280°
2026-05-09 02:25 16.71702 -99.62497 2059 ft 148 kts 286°
2026-05-09 02:26 16.72012 -99.63514 1884 ft 146 kts 286°
2026-05-09 02:26 16.72310 -99.64468 1698 ft 132 kts 287°
2026-05-09 02:26 16.72585 -99.65352 1543 ft 129 kts 287°
2026-05-09 02:26 16.72864 -99.66251 1376 ft 132 kts 287°
2026-05-09 02:27 16.73147 -99.67163 1216 ft 133 kts 286°
2026-05-09 02:27 16.73427 -99.68094 1086 ft 137 kts 285°
2026-05-09 02:27 16.73714 -99.69054 969 ft 141 kts 287°
2026-05-09 02:27 16.74010 -99.70031 803 ft 142 kts 288°
2026-05-09 02:28 16.74331 -99.71024 566 ft 146 kts 289°
2026-05-09 02:28 16.74658 -99.72027 359 ft 143 kts 286°
2026-05-09 02:28 16.74959 -99.72991 171 ft 138 kts 286°
2026-05-09 02:28 16.75251 -99.73928 27 ft 128 kts 288°
2026-05-09 02:29 16.75462 -99.74597 26 ft 56 kts 289°
2026-05-09 02:29 16.75555 -99.74895 25 ft 39 kts 289°
2026-05-09 02:29 16.75679 -99.75032 25 ft 25 kts 328°
2026-05-09 02:29 16.75822 -99.75109 25 ft 23 kts 336°
2026-05-09 02:30 16.75969 -99.75174 25 ft 22 kts 333°
2026-05-09 02:30 16.76026 -99.75237 29 ft 6 kts 328°
2026-05-09 02:30 16.76040 -99.75242 27 ft 0 kts 345°